Le nostre stazioni meteo in Italia

Pubblicità
Il mio iltempo24.it
Capo Spartivento, Italia (16469): Temperatura & dewpoint: 03.07.2020 22:00:00 - 09.07.2020 22:00:00 (CEST)Capo Spartivento, Italia (16469): velocità del vento: 03.07.2020 22:00:00 - 09.07.2020 22:00:00 (CEST)Capo Spartivento, Italia (16469): direzione del vento: 03.07.2020 22:00:00 - 09.07.2020 22:00:00 (CEST)Capo Spartivento, Italia (16469): reduced air pressure: 03.07.2020 22:00:00 - 09.07.2020 22:00:00 (CEST)Capo Spartivento, Italia (16469): precipitazioni: 03.07.2020 22:00:00 - 09.07.2020 22:00:00 (CEST)
Data & Tempo tt [°C] td [°C] ff [km/h] ff [kn] dd ppp [hPa] rr [mm]
09.07.2020 22:00:00 - - - - - - -
09.07.2020 21:00:00 25,2 23,8 9 5 E 1015,1 -
09.07.2020 20:00:00 25,3 23,3 8 4 E 1015,1 0,0
09.07.2020 19:00:00 25,7 22,9 11 6 E 1015,0 -
09.07.2020 18:00:00 26,4 23,2 11 6 E 1015,1 -
09.07.2020 17:00:00 27,3 23,7 9 5 E 1015,3 -
09.07.2020 16:00:00 26,7 23,7 13 7 E 1015,6 -
09.07.2020 15:00:00 26,6 23,8 16 9 E 1015,6 -
09.07.2020 14:00:00 26,7 23,7 16 9 E 1015,9 0,0
09.07.2020 13:00:00 26,4 23,4 18 10 ENE 1016,2 -
09.07.2020 12:00:00 26,2 23,2 16 9 E 1016,2 -
09.07.2020 11:00:00 25,4 22,8 22 12 E 1015,9 -
09.07.2020 10:00:00 25,0 22,2 18 10 E 1015,9 -
09.07.2020 09:00:00 24,6 21,5 11 6 E 1016,0 -
09.07.2020 08:00:00 24,1 21,2 11 6 E 1015,6 0,0
09.07.2020 07:00:00 22,7 20,7 2 1 NO 1015,3 -
09.07.2020 06:00:00 22,6 21,9 9 5 OSO 1015,1 -
09.07.2020 05:00:00 22,7 21,5 4 2 SO 1015,0 -
09.07.2020 04:00:00 22,9 20,6 9 5 NNO 1015,0 -
09.07.2020 03:00:00 23,0 20,5 4 2 O 1015,1 -
09.07.2020 02:00:00 22,9 21,5 13 7 O 1015,2 0,0
09.07.2020 01:00:00 23,0 21,0 11 6 SSE 1015,2 -
09.07.2020 00:00:00 23,3 21,1 13 7 OSO 1015,4 -
08.07.2020 23:00:00 23,5 21,3 9 5 SO 1015,6 -
08.07.2020 22:00:00 23,8 21,3 5 3 SSO 1015,5 -
08.07.2020 21:00:00 24,1 21,0 18 10 SO 1015,2 -
08.07.2020 20:00:00 24,6 20,4 9 5 SSO 1015,3 0,0
08.07.2020 19:00:00 26,1 20,4 4 2 S 1015,1 -
08.07.2020 18:00:00 26,3 20,1 15 8 SE 1015,0 -
08.07.2020 17:00:00 27,3 19,8 11 6 ESE 1015,2 -
08.07.2020 16:00:00 27,6 19,9 13 7 E 1015,2 -
08.07.2020 15:00:00 28,0 20,5 15 8 E 1015,1 -
08.07.2020 14:00:00 26,7 19,5 15 8 E 1015,1 0,0
08.07.2020 13:00:00 26,7 18,0 15 8 E 1015,2 -
08.07.2020 12:00:00 25,9 17,2 16 9 E 1015,1 -
08.07.2020 11:00:00 25,7 18,1 18 10 E 1015,0 -
08.07.2020 10:00:00 25,1 20,3 16 9 E 1014,5 -
08.07.2020 09:00:00 25,7 21,9 8 4 E 1014,0 -
08.07.2020 08:00:00 24,7 21,6 11 6 E 1013,7 0,0
08.07.2020 07:00:00 23,3 21,5 9 5 N 1013,1 -
08.07.2020 06:00:00 22,7 21,1 9 5 NNE 1012,8 -
08.07.2020 05:00:00 23,0 20,8 9 5 N 1012,6 -
08.07.2020 04:00:00 23,3 20,4 11 6 NNE 1012,3 -
08.07.2020 03:00:00 24,0 20,1 22 12 NE 1012,0 -
08.07.2020 02:00:00 24,3 20,2 21 11 NE 1011,7 0,0
08.07.2020 01:00:00 25,1 19,6 21 11 NE 1011,7 -
08.07.2020 00:00:00 25,9 19,2 29 16 NNE 1011,8 -
07.07.2020 23:00:00 26,0 20,5 24 13 NNE 1011,4 -
07.07.2020 22:00:00 28,0 14,9 11 6 O 1010,5 -
07.07.2020 21:00:00 26,3 23,5 5 3 O 1009,8 -
07.07.2020 20:00:00 28,8 20,2 8 4 SO 1009,2 0,0
07.07.2020 19:00:00 30,4 14,9 9 5 SO 1008,6 -
07.07.2020 18:00:00 30,4 16,4 18 10 SO 1008,2 -
07.07.2020 17:00:00 30,6 16,6 18 10 O 1007,9 -
07.07.2020 16:00:00 30,4 17,1 22 12 S 1008,0 -
07.07.2020 15:00:00 29,8 19,2 16 9 SO 1008,0 -
07.07.2020 14:00:00 28,9 22,1 13 7 SSO 1007,8 0,0
07.07.2020 13:00:00 29,3 19,6 11 6 SO 1007,8 -
07.07.2020 12:00:00 28,5 19,9 11 6 OSO 1007,6 -
07.07.2020 11:00:00 27,9 20,1 11 6 S 1007,2 -
07.07.2020 10:00:00 26,3 19,9 16 9 OSO 1006,6 -
07.07.2020 09:00:00 25,6 19,0 18 10 O 1006,3 -
07.07.2020 08:00:00 25,4 17,0 8 4 OSO 1006,1 0,0
07.07.2020 07:00:00 24,6 16,5 8 4 SSE 1005,7 -
07.07.2020 06:00:00 25,0 16,6 5 3 NNE 1005,6 -
07.07.2020 05:00:00 24,0 18,1 11 6 NNE 1005,1 -
07.07.2020 04:00:00 23,8 17,0 9 5 N 1005,2 -
07.07.2020 03:00:00 24,4 18,7 2 1 SSE 1005,1 -
07.07.2020 02:00:00 24,7 18,1 5 3 ENE 1005,5 0,0
07.07.2020 01:00:00 24,9 18,5 5 3 NNO 1005,7 -
07.07.2020 00:00:00 24,7 19,0 9 5 NNE 1005,8 -
06.07.2020 23:00:00 23,9 20,0 13 7 NE 1006,2 -
06.07.2020 22:00:00 24,1 20,0 13 7 N 1005,9 -
06.07.2020 21:00:00 24,2 19,6 11 6 N 1005,3 -
06.07.2020 20:00:00 24,4 19,6 4 2 O 1005,2 -
06.07.2020 19:00:00 24,8 18,4 8 4 SSO 1005,5 -
06.07.2020 18:00:00 24,4 18,3 13 7 NO 1005,4 -
06.07.2020 17:00:00 24,4 19,0 11 6 NNE 1005,7 -
06.07.2020 16:00:00 23,9 18,5 15 8 ONO 1005,6 -
06.07.2020 15:00:00 24,8 18,2 21 11 NO 1006,0 -
06.07.2020 14:00:00 22,9 19,4 15 8 O 1007,0 -
06.07.2020 13:00:00 23,9 20,8 8 4 O 1007,1 -
06.07.2020 12:00:00 24,8 21,1 11 6 O 1007,0 -
06.07.2020 11:00:00 25,3 20,9 4 2 S 1007,2 -
06.07.2020 10:00:00 25,2 17,8 5 3 N 1007,3 -
06.07.2020 09:00:00 25,3 18,4 5 3 E 1007,2 -
06.07.2020 08:00:00 24,3 19,9 2 1 N 1007,0 0,0
06.07.2020 07:00:00 23,8 17,0 4 2 NNE 1006,8 -
06.07.2020 06:00:00 24,9 16,5 4 2 N 1006,9 -
06.07.2020 05:00:00 23,9 16,8 8 4 O 1007,0 -
06.07.2020 04:00:00 24,3 15,7 5 3 NE 1007,5 -
06.07.2020 03:00:00 24,4 16,1 11 6 NNO 1008,3 -
06.07.2020 02:00:00 24,9 16,0 4 2 NO 1009,1 0,0
06.07.2020 01:00:00 25,5 16,0 0 0 N 1009,3 -
06.07.2020 00:00:00 24,8 17,2 8 4 ONO 1009,6 -
05.07.2020 23:00:00 24,4 18,0 5 3 NNO 1009,9 -
05.07.2020 22:00:00 24,1 19,1 8 4 NNE 1009,7 -
05.07.2020 21:00:00 24,8 19,3 5 3 NNE 1009,2 -
05.07.2020 20:00:00 26,1 19,4 2 1 SSE 1008,9 0,0
05.07.2020 19:00:00 26,3 20,6 2 1 ESE 1009,1 -
05.07.2020 18:00:00 27,1 21,3 13 7 SO 1009,1 -
05.07.2020 17:00:00 26,0 21,2 26 14 OSO 1009,6 -
05.07.2020 16:00:00 26,1 21,7 21 11 SO 1010,2 -
05.07.2020 15:00:00 24,5 21,0 18 10 OSO 1010,7 -
05.07.2020 14:00:00 24,5 21,2 15 8 OSO 1011,3 0,0
05.07.2020 13:00:00 25,1 21,1 2 1 OSO 1011,3 -
05.07.2020 12:00:00 27,0 20,3 4 2 SE 1011,7 -
05.07.2020 11:00:00 26,4 21,8 8 4 S 1011,4 -
05.07.2020 10:00:00 24,5 21,2 9 5 S 1011,3 -
05.07.2020 09:00:00 23,9 21,0 18 10 SSO 1010,9 -
05.07.2020 08:00:00 24,6 20,0 4 2 S 1010,7 -
05.07.2020 07:00:00 23,0 19,5 9 5 NNO 1011,2 -
05.07.2020 06:00:00 23,0 18,7 15 8 NNE 1010,7 -
05.07.2020 05:00:00 23,0 16,9 18 10 NE 1010,4 -
05.07.2020 04:00:00 24,2 15,3 13 7 O 1010,3 -
05.07.2020 03:00:00 22,4 20,3 16 9 N 1011,1 -
05.07.2020 02:00:00 22,9 21,1 9 5 E 1011,6 -
05.07.2020 01:00:00 23,1 20,9 22 12 ENE 1011,5 -
05.07.2020 00:00:00 23,3 20,6 29 16 NNE 1011,4 -
04.07.2020 23:00:00 25,3 20,5 22 12 NE 1011,3 -
04.07.2020 22:00:00 25,3 21,5 21 11 NNE 1011,0 -
04.07.2020 21:00:00 25,4 21,8 11 6 NNO 1010,0 -
04.07.2020 20:00:00 25,5 21,5 4 2 NNO 1010,1 -
04.07.2020 19:00:00 26,9 22,0 4 2 E 1010,1 -
04.07.2020 18:00:00 28,2 20,9 4 2 SSO 1010,0 -
04.07.2020 17:00:00 29,4 21,0 22 12 OSO 1010,6 -
04.07.2020 16:00:00 30,3 21,4 18 10 SO 1010,8 -
04.07.2020 15:00:00 30,3 22,2 21 11 SO 1011,2 -
04.07.2020 14:00:00 29,5 22,2 21 11 S 1011,6 0,0
04.07.2020 13:00:00 29,2 21,6 18 10 SO 1012,1 -
04.07.2020 12:00:00 28,9 19,2 15 8 SO 1012,2 -
04.07.2020 11:00:00 27,5 23,1 11 6 SO 1011,9 -
04.07.2020 10:00:00 26,5 22,5 16 9 O 1011,8 -
04.07.2020 09:00:00 26,5 19,3 13 7 OSO 1011,4 -
04.07.2020 08:00:00 25,8 18,7 15 8 O 1011,3 0,0
04.07.2020 07:00:00 25,2 18,1 18 10 OSO 1011,0 -
04.07.2020 06:00:00 25,2 17,8 4 2 SSO 1010,6 -
04.07.2020 05:00:00 25,9 18,3 5 3 E 1010,4 -
04.07.2020 04:00:00 26,4 17,4 2 1 NE 1010,5 -
04.07.2020 03:00:00 25,9 17,5 8 4 NNE 1010,4 -
04.07.2020 02:00:00 26,3 18,4 8 4 NNE 1010,3 0,0
04.07.2020 01:00:00 26,1 18,4 2 1 NNO 1010,7 -
04.07.2020 00:00:00 26,7 19,5 4 2 O 1010,9 -
03.07.2020 23:00:00 26,9 20,2 5 3 ENE 1010,8 -
03.07.2020 22:00:00 27,1 20,4 2 1 OSO 1010,5 -

tt = Temperatura
td = dewpoint
ff = velocità del vento
dd = direzione del vento
ppp = reduced air pressure
rr = precipitazioni

Stazioni seguenti

WeatherPro
AMSI
MeteoEarth